Location: Borojevi?i
(45.0486°N, 16.2297°E)
Time: 23:45:13
(UTC+00:00)

Cosmos 1727 Rocket - Pass Details

Date: 08 August 2020
Orbit: 961 x 996 km, 82.9° (Epoch: 23 September)

Event Time Altitude Azimuth Distance (km) Brightness Sun altitude
Rises 19:14:10 0° 349° (N) 3,724 7.8 -10.4°
Reaches altitude 10° 19:16:43 10° 348° (NNW) 2,773 7.1 -10.8°
Maximum altitude 19:23:03 71° 266° (W) 1,052 4.3 -11.7°
Drops below altitude 10° 19:29:20 10° 183° (S) 2,752 6.0 -12.6°
Sets 19:31:51 0° 181° (S) 3,695 6.7 -12.9°
